Weather History for Mosinee, WI

Change the Weather History Date:

Friday, December 7, 2012

  Actual Average Record
Temperature  
Mean Temperature 28 °F -  
Max Temperature 32 °F 31 °F 37 °F (1997)
Min Temperature 24 °F 17 °F -9 °F (2013)
Degree Days  
Heating Degree Days 37    
Moisture  
Dew Point 25 °F    
Average Humidity 86    
Maximum Humidity 100    
Minimum Humidity 69    
Precipitation  
Precipitation 0.00 in - - ()
Sea Level Pressure  
Sea Level Pressure 29.96 in    
Wind  
Wind Speed 7 mph (NNW)    
Max Wind Speed 9 mph    
Max Gust Speed -    
Visibility 10 miles    
Events      
Averages and records for this station are not official NWS values.
T = Trace of Precipitation, MM = Missing Value Source: NWS Daily Summary

Daily Weather History Graph

Daily Weather History Graph

Search for Another Location

Airport:

Trip Planner

Search our weather history database for the weather conditions in past years. The results will help you decide how hot, cold, wet, or windy it might be!

Date:

Astronomy

Dec. 07, 2012 Rise Set
Actual Time 7:22 AM CST 4:17 PM CST
Civil Twilight 6:49 AM CST 4:51 PM CST
Nautical Twilight 6:12 AM CST 5:28 PM CST
Astronomical Twilight 5:37 AM CST 6:03 PM CST
Moon 12:27 AM CST (12/7) 12:27 PM CST (12/7)
Length of Visible Light 10h 01m
Length of Day
8h 55m
Last Quarter, 38% of the Moon is Illuminated
Dec 7
Last Quarter
Dec 13
New
Dec 19
First Quarter
Dec 28
Full
Jan 4
Last Quarter

Hourly Weather History & Observations

Time (CST) Temp. Windchill Dew Point Humidity Pressure Visibility Wind Dir Wind Speed Gust Speed Precip Events Conditions
12:15 AM 32.0 °F 24.8 °F 28.4 °F 87% 29.89 in 10.0 mi NW 8.1 mph - N/A   Clear
12:35 AM 32.0 °F 24.2 °F 28.4 °F 87% 29.89 in 10.0 mi NW 9.2 mph - N/A   Clear
12:55 AM 30.2 °F 23.4 °F 28.4 °F 93% 29.90 in 10.0 mi WNW 6.9 mph - N/A   Clear
1:15 AM 30.2 °F 24.3 °F 28.4 °F 93% 29.90 in 10.0 mi NW 5.8 mph - N/A   Clear
1:35 AM 30.2 °F 22.6 °F 28.4 °F 93% 29.91 in 10.0 mi WNW 8.1 mph - N/A   Clear
1:55 AM 30.2 °F 21.9 °F 28.4 °F 93% 29.92 in 10.0 mi NW 9.2 mph - N/A   Clear
2:15 AM 30.2 °F 21.9 °F 28.4 °F 93% 29.93 in 10.0 mi NW 9.2 mph - N/A   Clear
2:35 AM 30.2 °F 23.4 °F 28.4 °F 93% 29.93 in 10.0 mi NW 6.9 mph - N/A   Scattered Clouds
2:55 AM 30.2 °F 24.3 °F 26.6 °F 86% 29.93 in 10.0 mi WNW 5.8 mph - N/A   Scattered Clouds
3:15 AM 30.2 °F 22.6 °F 28.4 °F 93% 29.94 in 10.0 mi WNW 8.1 mph - N/A   Clear
3:35 AM 30.2 °F 23.4 °F 28.4 °F 93% 29.94 in 10.0 mi WNW 6.9 mph - N/A   Clear
3:55 AM 30.2 °F 23.4 °F 26.6 °F 86% 29.95 in 10.0 mi WNW 6.9 mph - N/A   Clear
4:15 AM 30.2 °F 24.3 °F 26.6 °F 86% 29.96 in 10.0 mi WNW 5.8 mph - N/A   Clear
4:35 AM 30.2 °F 21.9 °F 26.6 °F 86% 29.96 in 10.0 mi WNW 9.2 mph - N/A   Clear
6:45 AM 24.8 °F 16.1 °F 24.8 °F 100% 29.96 in 10.0 mi NW 8.1 mph - N/A   Clear
7:45 AM 24.8 °F 15.3 °F 23.0 °F 93% 29.97 in 10.0 mi NW 9.2 mph - N/A   Clear
8:20 AM 24.8 °F 16.9 °F 24.8 °F 100% 29.98 in 10.0 mi NW 6.9 mph - N/A   Mostly Cloudy
8:45 AM 24.8 °F 16.9 °F 24.8 °F 100% 29.98 in 10.0 mi NNW 6.9 mph - N/A   Mostly Cloudy
9:52 AM 26.6 °F 22.6 °F 24.8 °F 93% 29.99 in 10.0 mi North 3.5 mph - N/A   Scattered Clouds
10:45 AM 28.4 °F - 24.8 °F 86% 29.99 in 10.0 mi Calm Calm - N/A   Clear
12:45 PM 32.0 °F 24.8 °F 23.0 °F 69% 29.95 in 10.0 mi NNW 8.1 mph - N/A   Mostly Cloudy
1:45 PM 32.0 °F 25.6 °F 23.0 °F 69% 29.95 in 10.0 mi Variable 6.9 mph - N/A   Overcast
2:45 PM 32.0 °F 26.4 °F 24.8 °F 75% 29.95 in 10.0 mi Variable 5.8 mph - N/A   Overcast
4:45 PM 30.2 °F 23.4 °F 23.0 °F 75% 29.97 in 10.0 mi North 6.9 mph - N/A   Overcast
5:45 PM 30.2 °F 22.6 °F 24.8 °F 80% 29.99 in 10.0 mi North 8.1 mph - N/A   Overcast
8:50 PM 28.4 °F 22.2 °F 23.0 °F 80% 29.99 in 10.0 mi North 5.8 mph - N/A   Overcast
9:15 PM 28.4 °F 21.2 °F 23.0 °F 80% 29.99 in 10.0 mi North 6.9 mph - N/A   Overcast
9:35 PM 28.4 °F 20.4 °F 23.0 °F 80% 29.99 in 10.0 mi North 8.1 mph - N/A   Overcast
9:45 PM 28.4 °F 21.2 °F 23.0 °F 80% 29.99 in 10.0 mi NNW 6.9 mph - N/A   Overcast
9:55 PM 28.4 °F 21.2 °F 23.0 °F 80% 29.99 in 10.0 mi NNW 6.9 mph - N/A   Overcast
10:15 PM 28.4 °F 21.2 °F 23.0 °F 80% 29.99 in 10.0 mi North 6.9 mph - N/A   Overcast
10:35 PM 28.4 °F 19.7 °F 23.0 °F 80% 29.99 in 10.0 mi North 9.2 mph - N/A   Overcast
10:55 PM 28.4 °F 20.4 °F 23.0 °F 80% 29.99 in 10.0 mi North 8.1 mph - N/A   Overcast
11:15 PM 28.4 °F 21.2 °F 23.0 °F 80% 29.99 in 10.0 mi North 6.9 mph - N/A   Overcast
11:35 PM 28.4 °F 21.2 °F 23.0 °F 80% 30.00 in 10.0 mi North 6.9 mph - N/A   Overcast
11:55 PM 28.4 °F 19.7 °F 23.0 °F 80% 29.99 in 10.0 mi North 9.2 mph - N/A   Overcast